Wind_Speed
60 61 62 63 64 65 67 68 69 71 72 73 75 76 78 79 81 83 85 88 90 93 96 98 99 102 104 106 109 111 112 114 116 119 122 123 125 127 127 129 131 132 131 131 133 135 137 138 139 139 139 138 137 137 138 139 140 141 143 144 144 144 143
56 57 58 59 60 62 63 64 66 67 68 70 71 73 74 76 77 79 81 83 86 89 91 93 96 98 101 103 105 107 109 111 113 115 117 118 120 122 123 124 127 129 128 129 131 133 135 137 138 138 139 139 138 138 138 139 139 140 141 143 144 144 143
52 53 54 56 57 59 60 60 62 63 65 67 68 70 72 73 74 76 78 80 82 85 87 89 92 95 97 100 101 103 105 108 111 113 114 114 115 117 119 120 122 125 127 127 128 130 133 135 137 138 138 139 139 139 139 139 140 140 140 141 143 144 144
48 50 52 53 54 55 56 57 59 61 62 63 64 65 67 68 70 72 74 76 79 82 84 86 88 91 94 96 97 99 101 104 107 109 111 111 112 112 113 115 117 120 124 126 127 128 130 132 135 136 137 138 139 140 139 139 140 141 140 140 141 143 143
46 48 50 50 50 52 54 56 58 59 59 60 60 61 61 63 64 66 69 72 75 78 80 83 85 87 90 92 93 96 99 101 103 104 106 108 109 110 110 111 112 114 119 123 126 126 127 129 131 133 135 136 138 139 138 139 140 141 141 141 140 141 141
43 46 47 46 47 49 52 54 55 56 56 57 57 57 58 59 60 62 64 67 70 73 76 79 82 85 86 88 90 93 96 98 99 100 101 103 105 107 108 109 109 110 113 118 123 125 125 126 128 130 132 134 135 137 137 138 139 140 141 141 140 139 139
41 42 42 42 44 46 48 50 52 53 54 54 55 55 55 56 57 59 60 62 65 68 71 74 78 81 83 86 88 90 92 94 96 96 97 98 100 103 105 105 106 106 108 112 118 122 124 124 125 126 128 130 133 134 135 136 137 139 139 140 139 138 137
38 38 37 38 40 43 45 47 48 50 51 52 53 53 54 54 55 56 58 59 61 64 66 69 73 77 80 83 85 87 88 90 92 93 94 95 96 98 100 101 103 104 105 107 112 118 121 123 124 124 125 127 129 131 132 133 134 135 137 138 139 138 137
35 34 34 36 38 39 41 43 45 46 48 49 51 51 52 53 53 54 56 57 59 60 62 65 69 72 76 79 82 84 85 86 87 89 91 92 94 95 96 97 99 101 102 104 107 112 117 120 123 124 124 124 125 126 128 130 132 134 135 137 138 138 138
32 32 33 34 36 37 39 40 42 43 45 46 48 49 50 50 51 52 53 55 56 58 60 62 65 68 71 75 78 80 82 82 83 84 86 89 91 92 92 93 95 96 98 101 104 108 112 117 120 122 123 123 123 124 126 129 131 133 134 135 136 137 137
30 30 31 33 35 36 37 39 40 41 43 44 45 46 47 48 49 50 51 52 54 56 58 60 62 64 67 71 74 77 78 79 80 80 82 84 86 88 89 90 91 92 94 97 100 104 108 113 116 120 122 123 123 124 125 127 129 131 132 133 134 134 134
29 29 30 31 33 35 36 37 38 39 40 41 42 44 45 46 47 48 50 50 51 53 55 57 60 62 64 67 70 73 75 76 77 78 78 80 82 84 86 87 88 89 91 93 96 100 104 109 113 117 121 123 124 124 125 126 127 129 130 131 132 132 132
27 28 29 30 31 33 34 35 36 37 38 39 40 41 42 43 45 46 48 49 50 50 52 54 57 59 62 64 66 69 71 73 74 75 76 77 78 80 82 84 85 87 88 90 92 95 100 105 110 115 118 122 124 126 126 126 127 127 128 129 130 131 132
26 27 28 28 29 31 32 33 34 35 35 36 38 39 40 41 42 44 45 46 47 49 50 51 53 56 58 61 63 65 67 69 70 71 72 74 75 77 79 81 83 85 86 88 90 92 96 101 107 111 116 120 124 127 128 128 127 127 127 127 128 129 131
24 25 26 27 27 28 30 31 32 33 34 34 35 37 38 39 40 41 42 43 45 46 48 49 50 52 55 58 60 62 64 66 67 68 69 71 73 74 76 78 80 82 84 86 87 90 93 97 102 107 112 116 121 124 126 127 127 127 127 127 127 128 129
22 23 24 25 26 27 28 29 31 32 32 32 33 34 36 37 38 39 40 41 42 44 46 47 48 50 52 54 56 59 61 63 64 66 67 69 70 72 74 76 78 80 82 83 85 87 90 93 97 102 106 111 116 120 123 125 126 126 126 125 125 125 126
21 21 22 23 24 25 27 28 29 30 31 32 32 32 34 35 36 37 38 40 41 42 44 45 47 48 49 51 53 55 58 60 62 64 65 67 68 69 71 74 75 77 79 81 83 85 88 91 94 97 101 106 111 115 119 121 123 124 124 124 124 124 125
19 20 21 21 22 23 25 25 27 28 30 30 31 31 32 33 34 35 37 38 40 41 42 43 45 46 48 50 51 53 55 58 60 62 63 65 66 67 69 70 71 73 75 77 79 82 84 87 90 93 97 101 105 109 113 116 119 121 123 124 124 124 124
17 18 19 20 21 22 23 24 25 26 27 28 29 29 30 31 32 33 35 36 38 39 40 41 43 44 46 48 49 51 53 55 57 59 60 62 64 65 66 67 68 70 72 74 76 79 81 84 86 89 92 96 99 103 107 111 114 118 121 122 122 122 122
15 16 17 18 19 20 21 22 23 24 25 26 27 27 27 28 30 31 32 34 35 36 38 40 41 42 44 45 47 49 50 52 54 56 57 59 61 63 63 63 65 68 70 71 73 76 78 81 83 85 88 91 94 97 101 105 109 113 116 118 119 120 120
14 14 15 15 16 17 19 20 21 23 24 25 25 25 25 26 27 28 30 31 33 34 35 37 38 39 40 42 44 46 47 49 51 53 54 56 58 59 59 61 63 65 67 69 71 73 75 77 80 82 85 87 90 93 96 99 103 107 110 113 115 116 117
13 14 14 14 15 15 16 17 19 20 22 23 24 25 25 25 25 26 27 29 30 32 33 35 36 37 38 39 41 43 45 47 48 50 52 53 54 55 57 59 61 62 64 66 68 70 72 74 77 79 81 83 86 88 91 93 96 99 102 105 107 109 110
13 13 13 13 14 14 14 15 17 18 19 21 22 23 24 24 25 25 26 27 29 30 31 33 35 36 37 38 39 41 43 45 47 49 50 51 52 53 55 56 58 59 62 64 66 68 70 72 74 77 78 80 82 84 86 88 90 92 94 96 98 100 103
13 13 12 12 13 13 14 14 15 16 17 18 20 21 22 23 24 24 25 26 27 28 30 31 32 34 35 36 38 39 41 43 45 47 48 49 50 50 52 53 55 56 58 61 63 66 68 69 71 73 75 77 78 80 81 84 86 87 89 91 92 94 96
16 14 13 12 12 12 12 13 14 15 16 17 18 19 20 20 21 22 23 24 25 27 28 28 30 31 32 33 35 37 38 41 42 44 46 47 48 48 49 51 53 54 56 58 60 62 64 65 67 69 71 72 74 76 78 80 82 84 85 87 88 90 92
17 16 15 13 12 11 11 12 13 14 15 16 17 17 18 19 19 20 21 22 23 24 26 27 28 29 30 31 32 33 35 37 39 41 43 45 46 46 47 49 51 53 54 55 57 59 60 62 63 64 66 67 70 72 75 77 79 81 82 84 85 86 88
16 16 15 14 13 12 12 12 12 12 13 14 15 16 17 18 18 19 20 21 21 22 23 24 25 27 28 29 30 31 32 34 36 38 40 42 43 44 45 47 50 52 53 54 55 56 58 60 61 62 63 64 66 69 71 74 76 78 79 81 82 83 85
15 15 14 14 13 12 12 12 12 12 12 12 13 14 16 17 17 18 19 20 20 21 22 23 24 24 25 26 27 28 29 30 32 34 37 39 41 42 43 45 48 50 51 52 53 55 56 58 59 60 61 62 63 65 68 70 72 74 76 78 79 81 82
15 14 14 13 13 12 11 11 12 12 11 11 11 12 13 15 16 17 18 19 20 20 21 22 22 23 24 24 25 26 26 27 29 30 33 35 37 39 40 41 44 46 48 49 51 53 54 55 56 58 59 60 61 63 65 67 69 71 73 75 76 78 80
15 14 14 13 13 12 11 11 11 11 11 11 10 11 11 13 14 15 17 18 19 19 20 20 21 21 22 23 23 24 25 26 27 28 29 31 33 35 36 38 39 42 44 46 48 49 51 53 54 55 56 57 58 60 62 64 66 67 69 71 73 75 77
16 15 14 13 13 12 12 11 11 11 11 10 10 10 10 11 12 13 15 16 17 17 18 18 19 20 20 21 22 23 23 24 25 27 28 29 30 32 33 34 36 38 40 42 44 46 48 49 51 53 54 55 56 57 58 60 61 63 65 68 71 73 74
19 17 16 15 14 13 12 11 11 10 10 10 10 9 9 9 10 11 13 14 15 15 16 16 17 18 18 19 20 20 21 22 24 25 26 27 29 30 31 32 33 34 36 38 40 42 44 46 47 49 51 52 53 54 55 56 57 59 61 64 66 68 69
21 19 18 17 15 14 13 12 11 11 10 10 9 9 8 8 9 10 11 12 13 14 14 14 15 16 16 17 18 19 19 20 21 22 23 24 26 27 28 30 31 32 33 35 36 38 40 42 43 45 47 49 50 51 52 53 54 55 57 59 61 61 62
23 21 20 18 17 16 14 13 12 12 11 10 10 9 9 8 7 8 9 10 11 12 13 13 13 14 14 15 16 17 17 18 18 19 20 21 22 23 25 26 28 29 31 32 33 35 37 38 40 41 43 45 46 48 49 50 51 52 54 55 56 57 58
23 22 21 19 18 17 16 14 13 12 12 11 11 10 10 9 7 7 7 8 9 10 11 11 12 12 13 13 14 14 15 16 16 17 17 18 19 21 22 23 25 26 28 29 31 32 34 35 36 38 39 41 42 44 45 46 48 49 50 51 52 53 55
23 22 21 20 19 18 17 16 14 13 12 11 10 10 10 9 8 7 6 6 7 8 9 10 10 11 11 12 13 13 14 14 15 16 16 17 18 19 20 21 23 24 26 27 28 30 31 32 33 35 36 38 39 40 42 43 44 45 47 48 49 50 52
Wind_Direction
255 254 253 253 252 251 250 250 250 249 248 248 247 246 246 245 245 244 244 244 244 244 244 243 243 242 241 240 240 240 240 239 239 239 239 238 238 237 237 238 238 237 235 234 235 237 237 237 237 237 237 237 236 236 238 239 239 240 241 242 242 242 242
255 255 254 254 253 252 251 250 249 249 248 248 247 247 246 245 244 243 243 242 242 242 242 243 243 243 242 241 240 240 240 240 239 239 239 238 237 237 236 236 238 239 237 235 235 235 237 237 238 237 237 237 237 236 237 238 238 239 240 241 242 242 242
256 256 255 254 253 253 252 252 251 250 249 247 246 245 245 244 243 243 242 242 241 241 241 241 241 241 242 242 241 240 240 240 239 239 239 238 237 236 235 234 235 237 239 238 236 235 236 237 237 238 237 237 237 237 237 237 238 238 238 240 241 242 242
257 256 255 254 254 254 254 253 252 250 249 248 247 246 245 244 244 243 242 241 241 241 241 240 240 240 240 241 241 241 240 240 240 239 239 239 238 237 236 234 232 233 236 238 238 236 236 236 237 237 237 237 238 237 237 237 238 238 238 239 240 241 242
257 255 255 254 254 254 253 253 252 252 251 250 249 248 247 245 244 243 242 241 241 240 240 240 240 240 240 239 240 240 240 240 240 239 239 239 239 238 237 235 233 231 232 236 238 238 237 236 237 237 238 238 238 238 238 238 238 239 239 239 239 240 242
256 255 254 253 252 252 252 253 253 253 253 253 252 250 248 247 245 243 242 241 240 239 239 239 240 240 240 239 239 238 239 239 240 240 239 239 239 238 238 237 235 231 230 232 236 238 238 237 237 237 237 238 238 238 238 238 238 239 239 239 239 239 241
259 258 257 255 253 252 252 253 253 254 254 254 253 252 251 249 247 245 243 241 240 239 238 238 238 239 240 240 239 238 238 238 239 239 239 239 239 238 238 237 236 234 231 230 233 236 238 238 238 237 237 238 238 239 239 238 238 238 239 240 240 239 240
264 263 262 259 255 253 252 252 253 253 254 254 254 253 252 250 249 247 245 243 241 239 238 238 238 238 239 239 240 240 239 238 238 238 239 239 238 238 238 237 236 235 233 231 231 233 237 238 238 238 237 237 238 239 239 240 240 239 240 240 240 240 239
267 266 264 261 258 256 254 253 252 252 252 253 253 252 252 251 249 248 246 245 243 241 239 238 238 238 238 239 240 240 240 240 239 238 238 238 238 238 237 236 236 235 234 232 231 231 234 237 238 238 238 238 238 238 239 240 240 240 240 240 240 240 239
268 267 264 262 260 258 256 254 252 251 251 251 251 251 251 250 249 248 247 245 244 242 240 239 238 238 238 238 239 240 240 240 240 238 238 237 238 238 237 236 235 235 234 233 232 231 231 234 236 238 239 239 238 238 238 238 239 240 240 240 240 240 239
271 268 266 263 261 259 257 256 254 253 252 251 251 251 250 249 249 248 247 246 244 243 241 240 238 238 238 238 238 239 240 240 240 239 238 237 237 237 238 237 236 235 234 233 232 231 231 231 233 236 238 239 239 238 238 238 238 239 240 241 241 241 240
272 269 267 264 263 261 260 258 257 255 254 253 252 252 251 249 248 247 247 246 245 243 242 240 239 238 237 237 238 238 239 239 239 239 238 237 237 236 237 237 236 236 235 233 232 231 230 230 231 233 235 237 239 239 239 239 238 239 239 240 241 242 242
272 270 268 266 264 263 262 260 259 257 255 254 253 252 252 250 249 247 246 246 245 244 242 241 240 239 238 238 238 238 238 238 238 238 238 237 237 236 236 236 236 236 235 234 233 232 230 230 230 231 232 234 236 238 239 239 239 239 239 239 240 241 242
275 273 271 269 267 266 265 263 262 260 257 255 253 252 251 250 249 248 247 246 245 244 243 242 241 240 239 238 238 238 238 238 238 238 238 237 236 236 235 235 235 235 235 234 233 232 231 230 230 230 231 232 233 236 237 239 239 240 240 240 240 240 241
276 274 272 270 268 266 265 264 263 262 259 257 255 254 252 250 249 249 248 247 246 245 245 243 242 241 239 239 238 238 238 238 238 238 238 237 236 236 235 235 234 234 234 234 234 233 232 231 231 230 231 231 233 234 236 238 239 240 240 240 240 240 241
279 276 274 272 270 268 266 265 264 263 261 258 256 255 253 252 250 248 247 246 246 245 245 244 243 242 240 239 238 238 238 238 238 238 237 237 236 236 235 235 234 234 233 233 233 233 233 232 232 231 231 231 232 234 236 237 239 240 241 241 241 241 242
280 277 275 272 270 268 267 265 264 264 263 260 257 255 254 252 251 249 247 245 245 244 244 244 243 242 241 240 239 238 237 237 237 237 237 237 236 236 236 235 235 234 234 234 233 233 233 233 233 232 232 232 232 233 235 236 238 239 241 241 241 241 241
282 278 275 273 270 268 266 265 264 263 263 261 259 256 254 252 250 249 247 245 244 243 243 242 242 242 241 240 239 238 237 237 237 237 237 237 237 236 236 236 235 235 235 235 235 234 234 234 234 234 234 233 233 234 235 236 237 238 240 241 241 241 242
285 281 278 274 271 269 267 265 264 262 262 261 259 257 255 252 250 248 247 245 244 243 242 241 241 241 241 240 240 239 239 238 237 237 237 237 237 237 236 236 236 235 235 235 235 235 235 235 235 235 235 235 235 235 235 235 236 238 239 240 241 242 242
289 285 280 277 273 271 269 266 264 263 261 260 259 257 254 252 250 247 246 245 244 243 242 242 241 241 240 240 240 240 240 239 239 238 238 237 238 238 238 237 236 236 235 235 235 235 235 235 235 235 236 236 236 236 236 236 236 237 238 240 241 242 243
295 289 284 278 274 271 268 267 265 263 262 261 260 258 255 252 249 247 246 245 244 243 242 242 242 241 241 240 240 240 240 240 240 240 239 238 238 238 238 238 237 236 236 236 236 235 235 236 236 236 236 236 237 237 237 237 237 237 238 239 240 241 243
303 297 290 284 278 273 269 266 264 263 261 261 260 258 256 253 250 248 246 245 243 242 241 241 241 240 239 239 239 239 240 240 240 240 240 239 238 238 237 237 237 237 237 237 236 236 235 235 236 236 236 237 237 237 238 238 238 239 239 240 240 241 242
314 306 298 291 285 279 273 268 264 262 261 259 259 258 257 255 252 249 247 245 243 241 240 240 240 239 238 237 236 236 237 237 238 239 239 239 238 238 238 238 237 237 237 237 237 236 236 235 235 236 236 237 237 238 238 239 240 240 241 241 242 242 243
325 317 309 301 293 286 279 272 267 263 260 259 258 257 257 255 253 251 249 247 246 244 243 242 241 241 240 238 236 236 235 235 236 237 238 238 238 238 238 238 238 237 237 238 238 238 237 236 236 236 236 236 237 238 238 239 240 241 241 242 242 242 242
332 327 320 313 304 296 287 279 272 266 262 259 257 256 256 255 254 252 251 250 249 248 246 245 244 243 242 241 239 238 237 237 237 237 237 237 236 235 236 237 237 237 237 238 238 239 239 238 238 237 237 237 237 238 238 239 240 240 241 241 241 241 241
336 332 327 322 317 310 301 290 280 271 265 261 258 256 255 254 253 252 251 250 249 248 248 246 245 244 243 243 241 239 238 237 237 237 238 238 237 235 234 235 236 236 235 236 237 238 239 239 239 238 238 237 237 237 238 238 239 240 240 241 241 241 241
341 336 332 328 325 320 314 305 294 283 273 266 262 259 256 253 251 250 248 248 248 248 248 248 247 246 245 244 243 242 240 238 237 237 237 238 238 236 234 234 235 236 235 235 235 236 237 238 239 238 237 237 237 237 238 238 239 239 240 240 241 241 242
347 344 340 336 331 326 321 314 306 297 287 276 269 263 260 256 253 250 248 247 246 246 247 246 247 247 247 246 245 244 242 240 239 238 237 237 238 237 235 234 235 236 236 236 236 236 236 237 238 238 238 237 237 237 237 238 238 239 239 240 240 240 241
349 349 348 344 339 334 328 322 315 307 298 289 281 274 267 262 258 254 250 247 246 245 244 244 244 245 245 245 245 244 243 242 240 239 239 238 238 237 236 234 234 235 236 236 237 237 238 238 238 238 238 238 237 237 237 237 238 238 238 239 239 240 241
351 350 349 349 347 344 339 333 326 318 308 299 291 284 278 272 266 261 256 252 248 246 245 244 243 242 242 242 242 241 241 241 240 240 239 239 239 238 237 235 234 234 234 235 236 237 238 239 239 239 239 239 238 237 237 238 238 238 238 238 239 239 240
355 353 351 350 350 349 346 343 339 331 321 310 300 292 285 279 273 268 263 258 253 250 248 246 245 243 242 241 240 239 237 237 237 237 237 238 238 238 238 237 235 234 234 233 234 235 236 237 238 239 240 240 240 239 238 238 239 239 239 239 239 239 239
357 356 355 353 352 350 348 347 345 341 333 323 312 303 294 286 279 274 268 263 258 253 250 248 247 246 245 243 241 239 238 236 235 234 234 235 235 236 237 237 237 236 235 234 233 233 234 235 236 238 239 240 241 241 240 240 239 239 240 240 241 241 240
356 356 357 356 353 351 349 348 346 344 340 334 326 317 308 297 287 279 273 267 262 256 251 248 246 246 245 244 242 240 239 238 237 236 235 235 235 235 236 236 236 236 236 236 235 234 234 234 234 235 237 238 239 240 241 241 240 240 240 241 242 242 242
354 354 354 354 353 352 350 348 347 344 342 339 335 328 321 311 300 289 278 271 265 260 255 251 248 246 245 244 243 242 241 240 238 237 237 237 237 237 237 237 237 237 236 236 236 236 236 235 235 235 235 236 237 238 239 240 240 240 241 241 242 242 242
351 351 351 351 351 351 350 349 347 345 342 340 338 332 326 319 313 304 292 281 271 263 257 252 248 246 244 243 242 241 241 240 239 237 236 235 236 236 236 236 237 237 237 236 236 236 236 237 236 236 236 236 236 236 237 238 239 240 240 240 241 241 241
347 348 348 349 349 348 348 348 347 345 342 340 337 333 326 319 315 311 305 297 285 274 264 255 249 245 241 239 238 238 237 237 237 235 234 233 233 233 233 233 234 235 235 235 235 235 235 235 236 236 236 236 237 237 237 237 237 238 239 239 239 240 240
Height
9967 9970 9972 9975 9977 9980 9983 9986 9988 9991 9994 9997 10000 10003 10007 10010 10015 10019 10022 10025 10029 10032 10036 10042 10047 10052 10058 10062 10066 10073 10079 10086 10092 10098 10105 10115 10124 10131 10142 10150 10156 10169 10186 10192 10195 10200 10205 10210 10217 10225 10234 10243 10250 10256 10259 10264 10270 10274 10278 10284 10293 10302 10310
9957 9959 9962 9964 9966 9969 9971 9974 9976 9979 9983 9986 9989 9992 9995 9998 10001 10005 10009 10012 10015 10018 10023 10028 10033 10037 10042 10046 10052 10059 10064 10069 10074 10080 10087 10097 10107 10115 10126 10137 10143 10153 10166 10175 10179 10184 10188 10193 10200 10208 10218 10225 10233 10240 10244 10248 10253 10259 10264 10269 10274 10283 10293
9949 9951 9953 9954 9955 9957 9960 9963 9966 9969 9972 9974 9977 9979 9981 9985 9989 9992 9996 9999 10002 10005 10010 10014 10019 10022 10026 10031 10038 10045 10050 10054 10058 10064 10071 10080 10090 10099 10109 10121 10130 10137 10147 10156 10162 10168 10172 10176 10182 10190 10200 10207 10213 10220 10226 10231 10236 10242 10249 10255 10258 10263 10273
9942 9943 9943 9945 9946 9948 9951 9953 9955 9957 9959 9962 9965 9968 9971 9975 9979 9982 9985 9988 9990 9993 9997 10001 10005 10008 10012 10017 10024 10030 10035 10039 10044 10050 10057 10065 10073 10083 10093 10104 10115 10124 10131 10136 10142 10150 10156 10161 10166 10173 10181 10188 10194 10202 10210 10217 10221 10226 10234 10241 10245 10248 10255
9934 9934 9935 9937 9939 9941 9941 9942 9943 9945 9948 9951 9955 9958 9962 9965 9968 9971 9975 9978 9980 9983 9986 9989 9993 9996 10000 10006 10012 10017 10020 10024 10029 10036 10044 10051 10059 10067 10076 10086 10097 10108 10117 10119 10123 10131 10139 10145 10150 10156 10164 10171 10178 10186 10194 10201 10206 10211 10218 10225 10232 10237 10241
9926 9926 9928 9931 9932 9933 9933 9934 9935 9937 9939 9941 9944 9947 9951 9954 9957 9960 9963 9966 9969 9972 9975 9978 9981 9984 9989 9994 9998 10002 10006 10010 10016 10023 10031 10038 10045 10052 10059 10068 10078 10091 10102 10106 10109 10114 10122 10128 10135 10141 10148 10155 10162 10168 10176 10184 10190 10195 10201 10208 10217 10225 10231
9918 9920 9922 9924 9925 9926 9927 9927 9928 9929 9931 9932 9935 9938 9941 9944 9947 9950 9952 9955 9958 9961 9964 9967 9971 9974 9978 9982 9985 9989 9993 9998 10004 10011 10019 10025 10031 10037 10045 10054 10064 10074 10085 10094 10098 10100 10105 10112 10119 10126 10132 10139 10145 10151 10158 10166 10173 10180 10187 10193 10202 10211 10219
9911 9914 9916 9917 9918 9919 9920 9921 9921 9922 9923 9924 9926 9928 9931 9934 9937 9940 9943 9946 9949 9951 9955 9958 9961 9965 9968 9971 9974 9978 9982 9988 9993 9999 10006 10011 10016 10023 10031 10040 10049 10057 10068 10078 10085 10088 10091 10096 10101 10108 10116 10123 10129 10137 10145 10153 10160 10167 10174 10179 10185 10194 10202
9905 9907 9909 9909 9910 9911 9912 9913 9914 9915 9916 9917 9918 9920 9923 9925 9927 9930 9933 9937 9940 9943 9946 9949 9951 9955 9958 9961 9965 9968 9972 9978 9983 9988 9994 9998 10003 10009 10018 10025 10033 10042 10051 10061 10069 10075 10080 10083 10086 10091 10100 10107 10115 10125 10134 10139 10143 10148 10154 10160 10165 10173 10181
9899 9900 9901 9902 9902 9903 9904 9905 9906 9907 9908 9910 9911 9913 9915 9917 9919 9922 9924 9927 9930 9933 9937 9940 9942 9946 9950 9953 9956 9959 9963 9968 9973 9978 9983 9987 9992 9998 10005 10012 10020 10028 10037 10045 10053 10060 10067 10072 10074 10078 10085 10093 10102 10111 10116 10119 10123 10129 10135 10140 10145 10154 10163
9893 9894 9895 9895 9896 9897 9898 9899 9900 9901 9902 9903 9904 9906 9907 9909 9911 9913 9916 9919 9922 9925 9928 9931 9934 9937 9940 9944 9947 9950 9954 9958 9963 9968 9972 9977 9982 9987 9993 10000 10008 10015 10022 10030 10038 10045 10052 10059 10064 10068 10071 10076 10084 10090 10095 10101 10107 10112 10117 10123 10129 10138 10147
9887 9888 9889 9890 9890 9891 9892 9893 9893 9894 9896 9897 9898 9899 9901 9903 9904 9906 9908 9911 9914 9917 9919 9922 9925 9928 9931 9935 9938 9941 9945 9949 9953 9957 9962 9966 9972 9977 9983 9989 9996 10003 10009 10016 10024 10031 10038 10046 10052 10056 10058 10062 10067 10072 10077 10084 10090 10095 10102 10109 10115 10123 10131
9883 9883 9884 9884 9885 9885 9886 9886 9887 9888 9889 9890 9891 9892 9894 9896 9897 9899 9901 9903 9906 9908 9911 9914 9917 9920 9923 9926 9930 9933 9936 9940 9944 9948 9952 9957 9962 9968 9973 9978 9984 9991 9997 10004 10011 10018 10025 10032 10036 10040 10045 10049 10051 10053 10058 10064 10071 10078 10087 10094 10101 10108 10115
9878 9878 9879 9879 9880 9880 9881 9881 9881 9882 9883 9884 9885 9886 9887 9889 9891 9893 9895 9897 9899 9901 9903 9906 9909 9912 9915 9918 9922 9925 9928 9932 9936 9940 9944 9948 9953 9957 9962 9967 9973 9979 9985 9991 9998 10004 10011 10016 10020 10025 10030 10033 10034 10036 10040 10047 10054 10061 10070 10077 10085 10091 10096
9875 9874 9874 9875 9875 9875 9875 9875 9876 9876 9877 9878 9879 9880 9881 9882 9884 9886 9888 9891 9893 9895 9897 9899 9901 9904 9908 9911 9914 9917 9921 9924 9928 9932 9935 9939 9943 9947 9952 9956 9962 9967 9973 9979 9985 9992 9997 10002 10007 10013 10017 10019 10022 10025 10029 10034 10040 10045 10052 10059 10067 10073 10079
9871 9871 9871 9871 9871 9871 9871 9871 9871 9871 9871 9872 9873 9874 9875 9876 9878 9879 9881 9883 9886 9888 9890 9892 9894 9897 9900 9903 9906 9909 9913 9916 9919 9922 9926 9930 9934 9938 9942 9946 9951 9956 9962 9968 9974 9979 9984 9989 9994 9999 10004 10008 10011 10014 10018 10023 10027 10032 10038 10046 10054 10061 10068
9869 9868 9868 9867 9867 9867 9867 9867 9866 9866 9866 9867 9868 9869 9870 9871 9872 9874 9875 9877 9879 9881 9883 9885 9887 9890 9892 9895 9898 9901 9904 9907 9910 9913 9917 9921 9925 9929 9933 9937 9942 9948 9953 9958 9963 9968 9972 9976 9981 9986 9991 9995 9999 10004 10008 10013 10017 10023 10028 10034 10041 10048 10055
9866 9865 9864 9864 9863 9863 9862 9862 9862 9862 9862 9862 9863 9864 9865 9866 9867 9868 9869 9871 9872 9874 9877 9879 9881 9883 9885 9887 9890 9893 9895 9898 9901 9904 9908 9912 9916 9920 9924 9929 9935 9940 9944 9949 9953 9958 9962 9966 9970 9975 9979 9984 9988 9994 9999 10003 10008 10013 10016 10020 10026 10034 10040
9863 9862 9861 9860 9860 9859 9859 9858 9858 9858 9858 9858 9858 9859 9860 9861 9862 9863 9864 9865 9867 9869 9871 9873 9874 9876 9878 9881 9883 9886 9888 9891 9894 9897 9900 9904 9907 9911 9915 9922 9928 9931 9934 9938 9942 9946 9951 9954 9959 9963 9968 9972 9977 9983 9988 9993 9997 10000 10003 10007 10014 10020 10026
9861 9860 9859 9858 9857 9856 9856 9855 9855 9854 9854 9854 9854 9855 9856 9857 9858 9859 9860 9860 9862 9863 9865 9866 9868 9870 9873 9875 9877 9879 9882 9884 9887 9889 9893 9896 9899 9902 9908 9915 9918 9920 9923 9928 9932 9935 9939 9943 9947 9952 9956 9960 9965 9970 9975 9980 9985 9988 9991 9995 10001 10007 10012
9859 9858 9856 9855 9854 9853 9852 9852 9851 9851 9851 9850 9850 9851 9851 9852 9853 9854 9855 9856 9857 9858 9860 9861 9863 9865 9867 9870 9871 9873 9876 9878 9880 9883 9886 9889 9892 9897 9902 9905 9907 9911 9915 9919 9922 9926 9929 9933 9937 9941 9944 9948 9953 9957 9961 9966 9971 9975 9978 9983 9989 9995 10000
9858 9856 9854 9853 9852 9851 9850 9849 9848 9848 9847 9847 9847 9847 9847 9848 9849 9850 9850 9851 9852 9853 9855 9856 9857 9859 9861 9864 9866 9868 9870 9872 9874 9876 9878 9881 9885 9889 9893 9895 9898 9903 9906 9908 9911 9915 9919 9922 9926 9929 9933 9937 9941 9945 9949 9954 9958 9962 9967 9973 9979 9985 9990
9856 9854 9853 9851 9849 9848 9847 9846 9845 9844 9844 9843 9843 9843 9843 9844 9845 9845 9846 9847 9847 9848 9849 9850 9851 9853 9855 9857 9859 9861 9863 9865 9867 9869 9871 9874 9878 9881 9884 9887 9891 9894 9896 9898 9902 9905 9908 9911 9915 9918 9922 9927 9931 9936 9940 9944 9948 9953 9958 9964 9969 9974 9979
9854 9853 9851 9849 9848 9846 9845 9844 9843 9842 9841 9840 9840 9840 9840 9840 9840 9841 9842 9842 9843 9844 9845 9846 9847 9848 9850 9852 9853 9855 9857 9859 9861 9863 9864 9867 9871 9875 9878 9880 9883 9886 9888 9890 9893 9895 9898 9902 9905 9909 9913 9917 9922 9927 9931 9935 9939 9943 9948 9952 9957 9962 9966
9852 9851 9849 9848 9846 9845 9843 9842 9841 9840 9839 9838 9837 9837 9837 9837 9837 9837 9838 9838 9839 9840 9840 9842 9843 9844 9845 9847 9848 9850 9852 9853 9855 9857 9858 9861 9864 9868 9871 9872 9874 9877 9880 9882 9884 9886 9890 9893 9897 9901 9905 9910 9914 9918 9921 9924 9927 9931 9935 9939 9943 9947 9952
9851 9849 9847 9846 9844 9843 9842 9840 9839 9838 9837 9836 9835 9834 9834 9834 9834 9834 9834 9834 9835 9835 9836 9837 9838 9839 9840 9841 9843 9845 9847 9848 9850 9852 9853 9854 9857 9861 9864 9865 9867 9869 9872 9874 9876 9879 9881 9884 9888 9892 9897 9901 9905 9908 9910 9913 9916 9920 9923 9927 9931 9935 9939
9850 9848 9846 9844 9842 9841 9840 9839 9837 9836 9835 9834 9833 9832 9831 9831 9831 9831 9831 9831 9831 9832 9832 9833 9833 9834 9835 9837 9838 9839 9841 9843 9845 9846 9847 9849 9851 9854 9857 9859 9859 9862 9864 9867 9869 9871 9873 9875 9878 9882 9886 9891 9895 9897 9900 9903 9906 9909 9913 9916 9920 9924 9927
9849 9847 9845 9843 9841 9840 9838 9837 9836 9834 9833 9832 9831 9830 9829 9828 9828 9828 9828 9828 9828 9828 9828 9829 9829 9830 9831 9832 9833 9835 9836 9838 9839 9841 9842 9843 9845 9848 9850 9852 9853 9855 9857 9860 9861 9863 9865 9867 9870 9873 9877 9881 9885 9888 9891 9893 9896 9899 9902 9906 9909 9912 9915
9849 9846 9844 9842 9841 9839 9837 9836 9834 9833 9831 9830 9829 9828 9827 9826 9826 9825 9825 9825 9825 9825 9825 9825 9826 9826 9827 9828 9829 9830 9831 9833 9834 9835 9837 9838 9840 9842 9844 9846 9848 9849 9851 9853 9855 9857 9859 9861 9863 9865 9868 9872 9875 9878 9881 9884 9886 9889 9893 9896 9899 9902 9905
9849 9846 9844 9842 9840 9838 9836 9834 9833 9831 9830 9828 9827 9826 9825 9824 9823 9823 9822 9822 9822 9822 9822 9822 9822 9823 9824 9824 9825 9826 9827 9828 9829 9830 9832 9833 9834 9836 9838 9840 9842 9844 9845 9847 9849 9851 9852 9854 9856 9858 9860 9863 9866 9869 9872 9875 9877 9881 9884 9887 9889 9892 9895
9848 9846 9844 9841 9839 9837 9835 9834 9832 9830 9829 9827 9826 9824 9823 9822 9822 9821 9820 9820 9819 9819 9819 9819 9819 9819 9820 9820 9821 9822 9823 9824 9825 9826 9827 9828 9829 9830 9832 9834 9835 9837 9839 9841 9842 9844 9846 9847 9849 9851 9853 9856 9858 9861 9864 9866 9869 9872 9875 9876 9878 9881 9885
9848 9846 9843 9841 9839 9837 9835 9833 9831 9829 9828 9826 9824 9823 9822 9821 9820 9819 9818 9818 9817 9816 9816 9816 9816 9816 9816 9817 9817 9818 9819 9819 9820 9821 9822 9823 9824 9825 9827 9828 9830 9831 9833 9835 9836 9838 9840 9841 9843 9844 9846 9849 9851 9853 9856 9859 9861 9864 9866 9867 9869 9873 9878
9848 9845 9843 9840 9838 9836 9834 9832 9830 9829 9827 9825 9824 9822 9821 9819 9818 9817 9817 9816 9815 9814 9814 9813 9813 9813 9813 9814 9814 9814 9815 9815 9816 9817 9818 9819 9820 9821 9823 9824 9825 9826 9828 9829 9831 9833 9834 9835 9837 9839 9840 9842 9844 9846 9848 9851 9854 9856 9858 9859 9862 9866 9870
9847 9845 9842 9840 9838 9835 9833 9831 9829 9828 9826 9824 9823 9821 9820 9819 9817 9816 9815 9814 9814 9813 9812 9811 9811 9811 9811 9811 9811 9811 9812 9812 9813 9814 9814 9815 9817 9818 9819 9820 9821 9822 9824 9825 9827 9828 9829 9831 9832 9834 9835 9837 9838 9840 9842 9844 9846 9848 9850 9852 9855 9858 9862
9847 9845 9842 9839 9837 9835 9833 9831 9829 9827 9825 9823 9822 9820 9819 9818 9816 9815 9814 9813 9812 9811 9811 9810 9809 9809 9808 9808 9808 9808 9809 9809 9809 9810 9811 9811 9813 9814 9815 9816 9817 9818 9819 9821 9822 9823 9825 9826 9827 9829 9830 9831 9833 9835 9836 9838 9840 9842 9844 9846 9848 9850 9853
9847 9844 9842 9839 9837 9834 9832 9830 9828 9826 9825 9823 9821 9820 9818 9817 9815 9814 9813 9812 9811 9810 9809 9809 9808 9807 9806 9806 9806 9806 9806 9806 9806 9807 9807 9808 9809 9809 9810 9811 9812 9814 9815 9816 9817 9818 9819 9821 9822 9823 9825 9826 9827 9829 9831 9832 9834 9836 9837 9839 9841 9843 9845